MTG-S1

Last updated on Sat Aug 15 2026 00:02:41 GMT+0000 (Coordinated Universal Time)

1 64723U 25143A 26226.56788274 -.00000023 00000+0 00000+0 0 9996 2 64723 0.6063 341.9672 0003354 255.7441 289.3223 1.00270672 4002
UTC large
Height (km)
Speed (km/s)
/
Latitude / Longitude
Inclination (degrees)
Orbital Period (minutes)
Azimuth
Elevation
Range (km)
Doppler Factor

Next 0 passes for location: London (51.5072 / 0.1276)

No passes found over London.
MTG-S1